Flag for Germany Weather past 2 weeks in Alsdorf, North Rhine-Westphalia, Germany

Now
64 °F

Mostly cloudy.


Feels Like: 64 °F
Forecast: 52 / 62 °F
Wind: 17 mph from Southwest

Location: Maastricht Airport Zuid Limburg

Current Time: Aug 30, 2014 at 6:18:50 PM

Latest Report: Aug 30, 2014 at 5:55 PM


Visibility: N/A

Pressure: 30.01 "Hg

Humidity: 78%

Dew point: 57 °F

Location of AlsdorfLocation

Historic Weather in Alsdorf — Graph

°F

Alsdorf temperature yesterday

Maximum temperature yesterday: 68 °F (at 5:25 PM)
Minimum temperature yesterday: 57 °F (at 5:25 AM)
Average temperature yesterday: 62 °F

Past Weeks' High & Low Weather Summary

 TemperatureHumidityPressure
High72 °F (Aug 28, 5:25 PM)100% (Aug 15, 11:55 PM)30.12 "Hg (Aug 15, 11:55 PM)
Low46 °F (Aug 20, 3:25 AM)49% (Aug 21, 4:55 PM)29.59 "Hg (Aug 26, 4:25 AM)
Average58 °F83%29.94 "Hg
* Reported Aug 15 4:25 PM — Aug 30 4:55 PM, Alsdorf, Weather by CustomWeather, © 2014

Note: Actual official high and low records may vary slightly from our data, if they occured in-between our weather recording intervals... More about our weather records

Advertising

Alsdorf weather history for previous 24 hours

 ConditionsComfort  
Time TempWeatherWind HumidityBarometerVisibility
4:55 PM
Aug 30
64 °FMostly cloudy.18 mph78%30.01 "HgN/A
4:25 PM64 °FMostly cloudy.16 mph78%30.01 "HgN/A
3:55 PM64 °FMostly cloudy.20 mph83%30.01 "HgN/A
3:25 PM64 °FMostly cloudy.17 mph78%30.01 "HgN/A
2:55 PM64 °FMostly cloudy.17 mph78%30.04 "HgN/A
2:25 PM64 °FMostly cloudy.17 mph78%30.04 "HgN/A
1:55 PM64 °FCloudy.16 mph78%30.01 "HgN/A
1:25 PM63 °FBroken clouds.18 mph83%30.04 "HgN/A
12:55 PM63 °FMostly cloudy.18 mph83%30.04 "HgN/A
12:25 PM63 °FMore clouds than sun.16 mph83%30.04 "HgN/A
11:55 AM63 °FMore clouds than sun.17 mph77%30.04 "HgN/A
11:25 AM63 °FMostly cloudy.16 mph77%30.04 "HgN/A
10:55 AM61 °FMostly cloudy.15 mph83%30.04 "HgN/A
10:25 AM61 °FMostly cloudy.14 mph83%30.04 "HgN/A
9:55 AM61 °FMostly cloudy.13 mph83%30.04 "HgN/A
9:25 AM59 °FOvercast.14 mph88%30.04 "HgN/A
8:55 AM61 °FOvercast.15 mph83%30.04 "HgN/A
8:25 AM61 °FMostly cloudy.15 mph77%30.01 "HgN/A
7:55 AM61 °FOvercast.15 mph77%30.01 "HgN/A
7:25 AM59 °FPassing clouds.13 mph82%30.01 "HgN/A
6:55 AM59 °FPassing clouds.15 mph82%30.01 "HgN/A
6:25 AM61 °FOvercast.14 mph77%30.01 "HgN/A
5:55 AM61 °FClear.15 mph77%30.01 "HgN/A
5:25 AM61 °FPassing clouds.14 mph77%30.01 "HgN/A
4:55 AM61 °FMostly cloudy.13 mph77%30.01 "HgN/A
4:25 AM59 °FOvercast.13 mph88%30.01 "HgN/A
3:55 AM59 °FMostly cloudy.10 mph88%30.04 "HgN/A
3:25 AM59 °FPassing clouds.9 mph82%30.04 "HgN/A
2:55 AM61 °FClear.13 mph77%30.04 "HgN/A
2:25 AM61 °FClear.14 mph77%30.04 "HgN/A
1:55 AM59 °FClear.13 mph82%30.04 "HgN/A
1:25 AM59 °FClear.10 mph82%30.04 "HgN/A
12:55 AM59 °FClear.8 mph88%30.04 "HgN/A
12:25 AM61 °FClear.9 mph77%30.04 "HgN/A
11:55 PM
Aug 29
61 °FClear.9 mph83%30.04 "HgN/A
11:25 PM61 °FClear.9 mph83%30.04 "HgN/A
10:55 PM63 °FMostly cloudy.9 mph77%30.04 "HgN/A
8:55 PM63 °FClear.7 mph77%30.01 "HgN/A
8:25 PM63 °FPassing clouds.7 mph77%30.01 "HgN/A
7:55 PM63 °FClear.8 mph77%30.01 "HgN/A
7:25 PM66 °FClear.12 mph68%30.01 "HgN/A
6:55 PM68 °FClear.10 mph64%30.01 "HgN/A
6:25 PM66 °FClear.14 mph64%30.01 "HgN/A
Weather by CustomWeather, © 2014

See weather overviewHow to use our weather pages